Dewpoint
39 41 42 42 44 48 49 50 51 55 64 64 63 64 65 64 63 63 64 64 64 64 61 58 55 52 48 47 47 49 48 48 45 43 43 43 43 43 43 44 45 43 43
36 38 41 42 43 48 48 49 49 50 51 57 57 64 64 64 64 64 63 63 63 63 61 59 55 52 48 49 47 47 49 47 44 43 41 39 39 41 42 43 42 41 41
34 36 36 40 40 46 48 48 49 48 49 52 54 61 62 61 60 60 61 61 62 62 61 59 57 54 52 49 47 46 46 45 43 42 43 38 36 41 41 42 42 41 41
31 33 34 35 38 41 47 47 45 44 46 49 52 51 55 56 59 60 61 61 60 60 59 59 57 55 53 50 48 46 46 47 42 41 44 42 41 37 38 41 41 41 40
24 24 26 27 31 37 44 45 44 43 46 46 47 51 50 52 53 56 58 58 59 59 59 59 58 56 54 51 50 47 46 47 43 41 41 43 41 41 38 38 39 40 40
25 24 24 27 27 34 38 42 43 43 43 44 43 46 48 50 49 49 50 54 57 58 57 58 58 57 54 52 51 47 47 48 44 42 41 41 38 38 37 38 39 37 39
23 19 21 25 26 33 38 40 42 41 42 44 44 44 46 48 48 48 48 48 50 55 56 56 56 56 55 53 52 49 49 49 45 44 43 43 39 39 38 39 39 38 38
16 16 20 25 30 34 34 42 41 41 42 44 45 47 48 49 49 49 48 49 49 49 52 54 55 55 55 54 52 51 49 50 48 45 45 43 41 40 39 40 39 37 37
15 14 22 30 29 31 33 37 39 41 44 43 45 46 46 47 49 48 49 49 49 49 49 50 52 54 54 53 53 50 50 50 49 47 47 45 42 43 41 41 39 37 35
18 18 24 27 29 30 35 36 36 36 38 41 43 42 43 46 47 48 48 48 48 48 48 48 50 52 52 53 52 50 49 49 49 47 46 43 43 44 44 43 40 40 39
17 18 24 27 29 32 33 33 35 38 39 39 40 39 41 46 47 47 47 47 48 47 46 46 46 48 50 52 50 50 49 48 47 45 44 41 42 43 44 42 42 41 40
19 22 23 25 29 30 30 31 35 37 38 39 40 42 44 45 46 45 45 46 46 45 44 45 46 47 50 50 48 48 47 46 44 42 41 41 40 43 43 44 43 42 41
19 18 21 27 30 27 28 35 38 38 39 40 40 41 43 43 44 43 43 44 43 43 43 45 48 49 49 47 46 46 45 43 42 42 41 40 40 40 41 42 43 42 41
17 17 22 26 23 26 31 36 37 39 39 40 40 41 42 44 43 42 42 42 42 42 43 44 43 43 44 44 44 43 43 42 41 41 40 40 40 41 41 42 41 40 38
14 17 22 23 24 28 30 33 38 39 40 39 40 41 42 43 42 40 41 41 41 41 41 41 41 41 41 41 41 41 40 40 39 39 40 40 40 40 41 41 41 39 37
19 21 24 25 25 25 26 35 38 39 39 38 41 43 42 41 40 40 40 40 39 39 38 38 38 38 40 39 39 39 39 38 38 38 38 39 41 40 40 40 40 38 36
22 25 25 24 26 25 32 37 38 38 37 38 40 39 39 36 37 39 38 37 35 36 35 35 34 33 35 37 38 37 36 36 36 35 35 37 39 38 35 34 34 35 36
25 25 26 26 26 35 38 37 36 36 36 37 38 39 39 37 34 34 34 34 33 33 32 32 32 32 32 35 35 34 33 33 34 34 34 34 35 34 32 31 30 31 32
27 27 28 27 35 38 37 36 36 36 36 36 37 37 37 36 33 33 32 32 32 32 32 32 32 32 32 34 34 33 33 32 32 32 33 33 33 34 34 31 28 27 29
27 29 30 37 38 37 36 36 36 35 34 36 35 36 36 37 33 32 32 32 32 32 32 32 32 33 32 34 34 33 33 32 32 32 33 34 34 34 32 29 27 25 24
28 29 36 37 37 36 35 35 35 33 34 34 34 35 36 35 33 32 32 32 32 32 32 31 32 32 32 32 34 34 32 31 31 30 31 32 34 33 32 30 28 25 22
23 30 36 34 34 33 33 34 33 34 33 33 33 34 34 33 32 32 32 32 32 31 30 30 30 31 32 33 34 34 32 32 30 29 30 32 33 33 31 27 27 25 23
25 38 35 32 30 33 33 32 33 33 32 32 33 32 32 32 32 32 32 32 32 31 30 29 29 29 31 32 33 33 32 32 30 30 31 32 31 31 29 28 27 24 24
35 38 37 33 29 30 33 33 33 33 32 32 32 32 32 32 32 32 32 32 32 31 30 29 28 29 30 31 31 32 31 30 29 29 29 28 28 28 27 27 25 25 25
35 38 34 34 31 33 32 33 33 32 32 32 32 32 32 32 32 31 32 32 32 33 31 30 29 28 29 31 32 31 30 29 28 27 26 25 25 26 26 25 24 25 26
38 38 35 33 32 32 31 31 33 34 32 32 32 32 32 32 32 31 30 33 33 33 33 33 32 31 32 33 33 33 31 29 27 25 23 23 23 23 23 23 23 23 25
Lifted_Index
5 5 5 5 5 5 5 5 6 5 3 1 -0 -2 -2 -2 -3 -2 -2 -2 -2 -2 -2 -2 -1 -0 1 2 3 3 5 7 8 8 8 9 9 9 10 10 10 11 11
5 5 5 5 6 6 6 6 6 6 5 4 2 0 -1 -2 -2 -2 -2 -2 -2 -2 -1 -1 -1 -1 0 2 3 3 4 6 8 9 9 8 9 10 10 10 10 11 11
6 6 6 7 7 8 7 7 7 7 7 6 5 3 1 1 0 -0 -1 -1 -1 -1 -1 -1 -1 -1 -0 1 2 3 3 5 7 9 9 8 8 9 10 11 11 11 12
7 7 8 9 9 9 8 8 8 8 7 7 7 6 5 4 3 2 2 1 1 0 -0 -1 -1 -1 -1 0 1 2 3 4 6 8 9 9 9 8 9 10 11 12 12
8 9 10 10 11 10 10 9 9 9 9 8 8 8 7 7 6 6 5 4 3 2 1 0 -0 -1 -1 -0 1 2 3 3 5 7 9 10 10 9 8 9 10 11 12
10 10 11 12 12 11 10 10 10 10 10 9 9 9 9 9 9 9 8 8 6 5 4 3 1 0 -0 0 1 2 3 3 4 6 8 9 9 9 9 9 10 11 11
12 12 12 12 12 12 11 11 10 10 10 10 10 10 10 10 10 10 10 9 8 7 6 5 3 1 0 -0 1 2 3 4 4 5 7 9 10 10 10 11 10 10 11
12 12 13 13 12 12 12 11 11 11 11 11 10 10 10 10 10 10 10 9 8 6 5 4 3 2 1 0 0 1 2 4 5 6 7 9 10 11 11 11 11 10 10
12 12 12 12 13 13 13 12 12 11 11 11 11 12 12 11 10 9 8 7 6 5 4 3 2 1 1 1 1 1 2 4 6 7 8 9 10 10 11 11 11 10 10
11 12 12 12 13 13 12 13 13 13 12 12 12 12 12 10 8 6 6 5 4 4 3 2 2 1 1 1 2 2 2 4 5 7 8 9 10 10 11 11 11 11 10
11 12 12 12 12 12 12 13 13 13 13 13 13 12 10 8 6 4 4 4 4 4 3 3 3 2 2 1 2 3 3 4 5 6 7 9 10 11 11 11 12 12 11
11 11 11 11 11 12 13 13 14 14 13 13 11 10 8 5 4 4 4 5 5 4 4 4 4 4 3 2 2 3 4 4 5 6 7 9 10 11 12 12 12 12 11
11 11 11 11 12 12 13 14 13 12 12 11 9 8 6 4 3 4 4 5 5 5 5 5 5 4 3 3 3 4 4 5 5 6 7 9 11 12 12 12 12 11 11
11 11 11 12 13 13 13 13 12 10 9 8 7 6 4 3 3 3 5 6 6 6 7 7 6 5 4 4 5 5 6 6 7 7 8 10 11 12 12 12 12 12 11
11 12 12 13 13 13 13 12 9 8 7 6 5 4 3 3 3 4 5 6 7 8 9 10 9 7 7 7 7 7 8 8 8 8 9 11 12 13 12 12 12 12 12
12 12 13 13 13 12 11 9 7 6 6 5 4 4 3 3 3 4 6 8 9 10 11 11 10 9 9 9 9 9 10 9 9 9 10 12 13 13 13 13 13 13 12
12 13 13 12 11 10 8 7 5 5 5 5 4 3 3 3 4 5 7 9 10 11 12 12 12 11 10 10 11 11 10 10 10 10 11 12 13 13 13 14 14 13 12
12 12 11 10 9 7 6 5 4 4 4 4 4 3 3 4 5 6 8 10 11 12 13 13 13 12 12 12 12 12 12 11 11 11 11 12 13 13 14 14 14 13 13
11 10 9 8 6 5 5 4 4 4 4 4 4 4 4 5 5 7 8 10 11 12 13 14 14 13 13 13 13 13 13 13 13 13 12 13 13 14 14 14 13 13 13
9 8 7 6 5 4 4 4 4 4 4 5 4 4 4 5 6 8 9 10 11 12 13 14 14 15 15 15 15 14 14 13 13 14 14 14 14 14 14 14 13 13 13
7 6 5 4 4 4 4 4 4 4 5 5 5 5 5 6 7 8 9 10 11 12 13 14 15 15 16 16 16 15 14 14 14 14 14 15 15 15 14 14 14 14 14
5 5 4 3 3 3 4 4 4 5 5 6 6 6 6 7 8 9 10 10 11 12 13 13 14 15 15 16 16 15 15 14 14 14 14 14 15 15 15 15 15 15 15
4 3 3 3 3 4 4 4 4 5 6 6 7 7 7 8 8 9 10 10 11 11 12 12 13 13 14 15 15 14 14 14 14 14 14 15 15 16 16 16 17 17 16
3 3 2 3 3 4 4 4 4 5 5 6 7 8 9 9 9 10 10 11 11 11 11 11 11 12 13 13 13 13 13 13 14 14 15 16 17 17 17 17 17 17 17
2 2 2 3 4 4 5 5 5 5 5 5 7 9 10 10 10 10 11 11 11 12 11 11 11 11 12 12 13 13 13 14 14 15 15 16 16 16 17 17 17 17 17
2 2 3 3 4 5 5 5 6 5 5 5 6 8 10 10 10 10 11 12 12 12 12 12 11 11 12 12 12 13 14 15 15 15 14 14 15 15 16 16 17 17 17